| time (UTC) | temp F | wind direction | speed MPH | gust MPH | rain 1hr in | rain 24hr in | rain mn in | humidity % | barometer mb |
| 20260904131543 | 78 | 132 | 0.0 | 2.0 | 0.00 | 0.00 | 0.00 | 84 | 1012.6 |
| 20260904130039 | 78 | 153 | 1.0 | 3.0 | 0.00 | 0.00 | 0.00 | 84 | 1012.4 |
| 20260904124540 | 78 | 205 | 0.0 | 3.0 | 0.00 | 0.00 | 0.00 | 84 | 1012.2 |
| 20260904123046 | 78 | 157 | 1.0 | 3.0 | 0.00 | 0.00 | 0.00 | 84 | 1012.1 |
| 20260904121531 | 78 | 166 | 1.0 | 7.0 | 0.00 | 0.00 | 0.00 | 84 | 1012.0 |
| 20260904120029 | 78 | 180 | 0.0 | 4.0 | 0.00 | 0.00 | 0.00 | 84 | 1011.9 |
| 20260904114528 | 78 | 163 | 0.0 | 2.0 | 0.00 | 0.00 | 0.00 | 84 | 1011.7 |
| 20260904113029 | 78 | 150 | 0.0 | 3.0 | 0.00 | 0.00 | 0.00 | 83 | 1011.7 |
| 20260904111528 | 78 | 165 | 0.0 | 3.0 | 0.00 | 0.00 | 0.00 | 83 | 1011.7 |
| 20260904110036 | 78 | 173 | 0.0 | 2.0 | 0.00 | 0.00 | 0.00 | 83 | 1011.6 |
| 20260904104524 | 78 | 150 | 0.0 | 0.0 | 0.00 | 0.00 | 0.00 | 83 | 1011.5 |
| 20260904103023 | 78 | 150 | 0.0 | 2.0 | 0.00 | 0.00 | 0.00 | 83 | 1011.3 |
| 20260904101524 | 78 | 92 | 0.0 | 3.0 | 0.00 | 0.00 | 0.00 | 83 | 1011.3 |
| 20260904100022 | 78 | 131 | 0.0 | 3.0 | 0.00 | 0.00 | 0.00 | 83 | 1011.4 |
| 20260904094522 | 78 | 107 | 0.0 | 2.0 | 0.00 | 0.00 | 0.00 | 83 | 1011.3 |
| 20260904093021 | 78 | 180 | 0.0 | 3.0 | 0.00 | 0.00 | 0.00 | 83 | 1011.2 |
| 20260904091522 | 78 | 67 | 1.0 | 4.0 | 0.00 | 0.00 | 0.00 | 82 | 1011.2 |
| 20260904090022 | 78 | 157 | 0.0 | 2.0 | 0.00 | 0.00 | 0.00 | 82 | 1011.2 |
| 20260904084619 | 78 | 76 | 0.0 | 7.0 | 0.00 | 0.00 | 0.00 | 82 | 1011.2 |
| 20260904083018 | 78 | 117 | 1.0 | 3.0 | 0.00 | 0.00 | 0.00 | 82 | 1011.1 |
| 20260904081517 | 79 | 105 | 0.0 | 5.0 | 0.00 | 0.00 | 0.00 | 82 | 1011.1 |
| 20260904080018 | 79 | 120 | 0.0 | 4.0 | 0.00 | 0.00 | 0.00 | 82 | 1011.0 |
| 20260904074516 | 79 | 184 | 0.0 | 6.0 | 0.00 | 0.00 | 0.00 | 81 | 1011.1 |
| 20260904073115 | 79 | 147 | 0.0 | 4.0 | 0.00 | 0.00 | 0.00 | 81 | 1011.1 |
| 20260904071515 | 79 | 147 | 0.0 | 4.0 | 0.00 | 0.00 | 0.00 | 81 | 1011.3 |
| 20260904070033 | 79 | 122 | 0.0 | 5.0 | 0.00 | 0.00 | 0.00 | 80 | 1011.4 |
| 20260904064512 | 79 | 169 | 0.0 | 6.0 | 0.00 | 0.00 | 0.00 | 80 | 1011.5 |
| 20260904063014 | 79 | 125 | 3.0 | 8.0 | 0.00 | 0.00 | 0.00 | 80 | 1011.4 |
| 20260904061510 | 79 | 205 | 2.0 | 7.0 | 0.00 | 0.00 | 0.00 | 80 | 1011.5 |
| 20260904060009 | 79 | 119 | 1.0 | 5.0 | 0.00 | 0.00 | 0.00 | 80 | 1011.5 |
| 20260904054513 | 79 | 89 | 1.0 | 6.0 | 0.00 | 0.00 | 0.00 | 79 | 1011.5 |
| 20260904053007 | 80 | 171 | 0.0 | 6.0 | 0.00 | 0.00 | 0.00 | 78 | 1011.4 |
| 20260904051508 | 80 | 105 | 2.0 | 8.0 | 0.00 | 0.00 | 0.00 | 77 | 1011.3 |
| 20260904050005 | 80 | 92 | 2.0 | 4.0 | 0.00 | 0.00 | 0.00 | 76 | 1011.5 |
| 20260904044500 | 80 | 107 | 0.0 | 8.0 | 0.00 | 0.00 | 0.00 | 75 | 1011.5 |
| 20260904043100 | 80 | 112 | 1.0 | 5.0 | 0.00 | 0.00 | 0.00 | 73 | 1011.4 |
| 20260904041600 | 80 | 137 | 0.0 | 6.0 | 0.00 | 0.00 | 0.00 | 72 | 1011.5 |
| 20260904040100 | 81 | 148 | 0.0 | 5.0 | 0.00 | 0.00 | 0.00 | 71 | 1011.5 |
| 20260904034601 | 81 | 124 | 1.0 | 5.0 | 0.00 | 0.00 | 0.00 | 71 | 1011.5 |
| 20260904033100 | 81 | 172 | 1.0 | 5.0 | 0.00 | 0.00 | 0.00 | 72 | 1011.5 |
| 20260904031557 | 82 | 153 | 0.0 | 2.0 | 0.00 | 0.00 | 0.00 | 72 | 1011.4 |
| 20260904030100 | 82 | 134 | 0.0 | 6.0 | 0.00 | 0.00 | 0.00 | 72 | 1011.2 |
| 20260904024600 | 82 | 144 | 0.0 | 4.0 | 0.00 | 0.00 | 0.00 | 72 | 1011.1 |
| 20260904023101 | 83 | 140 | 1.0 | 5.0 | 0.00 | 0.00 | 0.00 | 72 | 1010.9 |
| 20260904021556 | 83 | 188 | 0.0 | 10.0 | 0.00 | 0.00 | 0.00 | 71 | 1010.7 |
| 20260904020057 | 83 | 111 | 0.0 | 6.0 | 0.00 | 0.00 | 0.00 | 69 | 1010.4 |
| 20260904014558 | 84 | 80 | 1.0 | 6.0 | 0.00 | 0.00 | 0.00 | 70 | 1010.0 |
| 20260904013055 | 85 | 53 | 1.0 | 8.0 | 0.00 | 0.00 | 0.00 | 69 | 1009.8 |
| 20260904011609 | 86 | 65 | 2.0 | 8.0 | 0.00 | 0.00 | 0.00 | 64 | 1009.7 |
| 20260904010106 | 86 | 119 | 4.0 | 9.0 | 0.00 | 0.00 | 0.00 | 61 | 1009.6 |
| 20260904004556 | 87 | 147 | 2.0 | 7.0 | 0.00 | 0.00 | 0.00 | 61 | 1009.6 |
| 20260904003052 | 87 | 122 | 2.0 | 8.0 | 0.00 | 0.00 | 0.00 | 61 | 1009.4 |
| 20260904001552 | 88 | 209 | 2.0 | 8.0 | 0.00 | 0.00 | 0.00 | 62 | 1009.5 |
| 20260904000058 | 88 | 178 | 2.0 | 8.0 | 0.00 | 0.00 | 0.00 | 61 | 1009.4 |
| 20260903234551 | 89 | 139 | 3.0 | 8.0 | 0.00 | 0.00 | 0.00 | 60 | 1009.3 |
| 20260903233049 | 90 | 103 | 3.0 | 10.0 | 0.00 | 0.00 | 0.00 | 59 | 1009.2 |
| 20260903231555 | 91 | 14 | 3.0 | 8.0 | 0.00 | 0.00 | 0.00 | 59 | 1009.1 |
| 20260903230050 | 91 | 121 | 1.0 | 10.0 | 0.00 | 0.00 | 0.00 | 59 | 1008.9 |
| 20260903224548 | 91 | 126 | 3.0 | 6.0 | 0.00 | 0.00 | 0.00 | 59 | 1008.9 |
| 20260903223048 | 91 | 52 | 2.0 | 7.0 | 0.00 | 0.00 | 0.00 | 60 | 1009.0 |
| 20260903221548 | 92 | 138 | 2.0 | 9.0 | 0.00 | 0.00 | 0.00 | 59 | 1009.0 |
| 20260903220055 | 93 | 103 | 1.0 | 8.0 | 0.00 | 0.00 | 0.00 | 58 | 1008.9 |
| 20260903214545 | 92 | 136 | 2.0 | 4.0 | 0.00 | 0.00 | 0.00 | 59 | 1009.0 |
| 20260903213053 | 92 | 162 | 3.0 | 6.0 | 0.00 | 0.00 | 0.00 | 60 | 1009.0 |
| 20260903211540 | 91 | 140 | 1.0 | 7.0 | 0.00 | 0.00 | 0.00 | 61 | 1009.2 |
| 20260903210037 | 90 | 92 | 1.0 | 7.0 | 0.00 | 0.00 | 0.00 | 64 | 1009.4 |
| 20260903204532 | 89 | 230 | 2.0 | 8.0 | 0.00 | 0.00 | 0.00 | 64 | 1009.7 |
| 20260903203045 | 89 | 115 | 1.0 | 9.0 | 0.00 | 0.00 | 0.00 | 65 | 1009.9 |
| 20260903201536 | 90 | 178 | 3.0 | 8.0 | 0.00 | 0.00 | 0.00 | 65 | 1010.0 |
| 20260903200030 | 90 | 142 | 2.0 | 10.0 | 0.00 | 0.00 | 0.00 | 65 | 1010.0 |
| 20260903194528 | 90 | 137 | 3.0 | 14.0 | 0.00 | 0.00 | 0.00 | 65 | 1010.1 |
| 20260903193031 | 89 | 116 | 3.0 | 11.0 | 0.00 | 0.00 | 0.00 | 68 | 1010.2 |
| 20260903191523 | 88 | 133 | 3.0 | 8.0 | 0.00 | 0.00 | 0.00 | 68 | 1010.5 |
| 20260903190021 | 88 | 130 | 3.0 | 9.0 | 0.00 | 0.00 | 0.00 | 69 | 1010.7 |
| 20260903184517 | 87 | 79 | 2.0 | 11.0 | 0.00 | 0.00 | 0.00 | 70 | 1010.9 |
| 20260903183015 | 86 | 124 | 2.0 | 13.0 | 0.00 | 0.00 | 0.00 | 72 | 1011.2 |
| 20260903181516 | 86 | 111 | 4.0 | 10.0 | 0.00 | 0.00 | 0.00 | 71 | 1011.3 |
| 20260903180020 | 86 | 157 | 3.0 | 11.0 | 0.00 | 0.00 | 0.00 | 71 | 1011.3 |
| 20260903174512 | 86 | 146 | 3.0 | 13.0 | 0.00 | 0.00 | 0.00 | 71 | 1011.5 |
| 20260903173010 | 86 | 148 | 4.0 | 11.0 | 0.00 | 0.00 | 0.00 | 72 | 1011.7 |
| 20260903171508 | 85 | 111 | 2.0 | 9.0 | 0.00 | 0.00 | 0.00 | 73 | 1011.7 |
| 20260903170011 | 85 | 235 | 2.0 | 10.0 | 0.00 | 0.00 | 0.00 | 75 | 1011.8 |
| 20260903164505 | 84 | 90 | 2.0 | 10.0 | 0.00 | 0.00 | 0.00 | 75 | 1011.8 |
| 20260903163002 | 84 | 108 | 3.0 | 10.0 | 0.00 | 0.00 | 0.00 | 75 | 1011.9 |
| 20260903161502 | 84 | 98 | 4.0 | 9.0 | 0.00 | 0.00 | 0.00 | 76 | 1011.8 |
| 20260903160100 | 84 | 191 | 2.0 | 11.0 | 0.00 | 0.00 | 0.00 | 77 | 1011.8 |
| 20260903154600 | 83 | 228 | 2.0 | 7.0 | 0.00 | 0.00 | 0.00 | 78 | 1011.9 |
| 20260903153054 | 81 | 234 | 1.0 | 8.0 | 0.00 | 0.00 | 0.00 | 80 | 1011.8 |
| 20260903151551 | 80 | 236 | 0.0 | 7.0 | 0.00 | 0.00 | 0.00 | 81 | 1011.8 |
| 20260903150049 | 80 | 234 | 2.0 | 7.0 | 0.00 | 0.00 | 0.00 | 81 | 1011.7 |
| 20260903144557 | 80 | 237 | 0.0 | 3.0 | 0.00 | 0.00 | 0.00 | 81 | 1012.0 |
| 20260903143052 | 79 | 237 | 0.0 | 2.0 | 0.00 | 0.00 | 0.00 | 81 | 1012.1 |
| 20260903141546 | 79 | 248 | 0.0 | 5.0 | 0.00 | 0.00 | 0.00 | 81 | 1011.8 |
| 20260903140047 | 79 | 242 | 1.0 | 4.0 | 0.00 | 0.00 | 0.00 | 81 | 1011.8 |
| 20260903134541 | 78 | 236 | 0.0 | 4.0 | 0.00 | 0.00 | 0.00 | 82 | 1011.8 |
| 20260903133040 | 78 | 238 | 0.0 | 2.0 | 0.00 | 0.00 | 0.00 | 82 | 1011.7 |